| time (UTC) | temp F | wind direction | speed knots | gust knots | rain 1hr in | rain 24hr in | rain mn in | humidity % | barometer mb |
| 20260510015836 | 59 | 103 | 0.9 | 0.9 | 0.00 | 0.00 | 0.00 | 74 | 1009.8 |
| 20260510015332 | 59 | 102 | 0.9 | 0.9 | 0.00 | 0.00 | 0.00 | 73 | 1009.8 |
| 20260510014828 | 60 | 111 | 0.9 | 0.9 | 0.00 | 0.00 | 0.00 | 71 | 1009.8 |
| 20260510014325 | 61 | 101 | 0.9 | 1.7 | 0.00 | 0.00 | 0.00 | 70 | 1009.7 |
| 20260510013821 | 61 | 113 | 0.0 | 0.0 | 0.00 | 0.00 | 0.00 | 69 | 1009.4 |
| 20260510013317 | 61 | 190 | 0.0 | 0.9 | 0.00 | 0.00 | 0.00 | 69 | 1009.5 |
| 20260510012818 | 61 | 131 | 0.9 | 0.9 | 0.00 | 0.00 | 0.00 | 69 | 1009.2 |
| 20260510012317 | 62 | 140 | 0.9 | 0.9 | 0.00 | 0.00 | 0.00 | 68 | 1009.2 |
| 20260510011812 | 62 | 117 | 0.0 | 0.0 | 0.00 | 0.00 | 0.00 | 68 | 1009.3 |
| 20260510011308 | 62 | 123 | 0.9 | 0.9 | 0.00 | 0.00 | 0.00 | 67 | 1009.2 |
| 20260510010805 | 63 | 8 | 0.9 | 0.9 | 0.00 | 0.00 | 0.00 | 66 | 1009.2 |
| 20260510010302 | 62 | 117 | 0.0 | 0.9 | 0.00 | 0.00 | 0.00 | 63 | 1008.9 |
| 20260510005759 | 62 | 95 | 0.0 | 0.0 | 0.00 | 0.00 | 0.00 | 66 | 1008.7 |
| 20260510005255 | 63 | 124 | 0.0 | 0.9 | 0.00 | 0.00 | 0.00 | 66 | 1008.8 |
| 20260510004753 | 63 | 103 | 0.9 | 0.9 | 0.00 | 0.00 | 0.00 | 65 | 1008.7 |
| 20260510004250 | 64 | 351 | 2.6 | 2.6 | 0.00 | 0.00 | 0.00 | 64 | 1008.6 |
| 20260510003747 | 65 | 113 | 0.0 | 0.0 | 0.00 | 0.00 | 0.00 | 61 | 1008.5 |
| 20260510003244 | 65 | 117 | 0.0 | 0.9 | 0.00 | 0.00 | 0.00 | 61 | 1008.4 |
| 20260510002742 | 65 | 109 | 0.9 | 0.9 | 0.00 | 0.00 | 0.00 | 61 | 1008.1 |
| 20260510002240 | 66 | 125 | 0.0 | 0.0 | 0.00 | 0.00 | 0.00 | 60 | 1008.1 |
| 20260510001737 | 66 | 122 | 0.0 | 0.9 | 0.00 | 0.00 | 0.00 | 59 | 1008.2 |
| 20260510001235 | 66 | 123 | 0.0 | 0.0 | 0.00 | 0.00 | 0.00 | 59 | 1008.0 |
| 20260510000731 | 67 | 107 | 0.9 | 0.9 | 0.00 | 0.00 | 0.00 | 59 | 1007.7 |
| 20260510000228 | 67 | 116 | 0.9 | 0.9 | 0.00 | 0.00 | 0.00 | 59 | 1007.7 |
| 20260509235725 | 68 | 122 | 0.0 | 0.9 | 0.00 | 0.00 | 0.00 | 58 | 1007.9 |
| 20260509235221 | 70 | 144 | 0.9 | 0.9 | 0.00 | 0.00 | 0.00 | 55 | 1007.9 |
| 20260509234717 | 71 | 170 | 0.9 | 1.7 | 0.00 | 0.00 | 0.00 | 51 | 1007.9 |
| 20260509234216 | 71 | 148 | 2.6 | 2.6 | 0.00 | 0.00 | 0.00 | 50 | 1007.9 |
| 20260509233714 | 71 | 184 | 2.6 | 2.6 | 0.00 | 0.00 | 0.00 | 51 | 1007.7 |
| 20260509233211 | 71 | 186 | 1.7 | 1.7 | 0.00 | 0.00 | 0.00 | 51 | 1008.1 |
| 20260509232707 | 70 | 182 | 2.6 | 2.6 | 0.00 | 0.00 | 0.00 | 52 | 1008.1 |
| 20260509232204 | 71 | 168 | 2.6 | 2.6 | 0.00 | 0.00 | 0.00 | 51 | 1007.9 |
| 20260509231700 | 71 | 184 | 1.7 | 2.6 | 0.00 | 0.00 | 0.00 | 50 | 1007.9 |
| 20260509231157 | 71 | 158 | 1.7 | 1.7 | 0.00 | 0.00 | 0.00 | 49 | 1007.9 |
| 20260509230654 | 71 | 178 | 2.6 | 2.6 | 0.00 | 0.00 | 0.00 | 50 | 1007.9 |
| 20260509230151 | 72 | 167 | 2.6 | 2.6 | 0.00 | 0.00 | 0.00 | 50 | 1007.6 |
| 20260509225647 | 73 | 174 | 1.7 | 1.7 | 0.00 | 0.00 | 0.00 | 47 | 1007.5 |
| 20260509225142 | 72 | 198 | 2.6 | 2.6 | 0.00 | 0.00 | 0.00 | 48 | 1007.5 |
| 20260509224638 | 72 | 188 | 3.5 | 4.3 | 0.00 | 0.00 | 0.00 | 47 | 1007.6 |
| 20260509224135 | 72 | 152 | 3.5 | 5.2 | 0.00 | 0.00 | 0.00 | 47 | 1007.9 |
| 20260509223632 | 73 | 183 | 3.5 | 4.3 | 0.00 | 0.00 | 0.00 | 46 | 1007.7 |
| 20260509223129 | 74 | 166 | 6.1 | 7.8 | 0.00 | 0.00 | 0.00 | 45 | 1007.6 |
| 20260509222626 | 74 | 169 | 7.0 | 8.7 | 0.00 | 0.00 | 0.00 | 45 | 1007.9 |
| 20260509222121 | 74 | 148 | 3.5 | 4.3 | 0.00 | 0.00 | 0.00 | 44 | 1007.6 |
| 20260509221618 | 74 | 161 | 5.2 | 6.1 | 0.00 | 0.00 | 0.00 | 44 | 1007.9 |
| 20260509221114 | 73 | 179 | 2.6 | 2.6 | 0.00 | 0.00 | 0.00 | 44 | 1007.7 |
| 20260509220609 | 73 | 158 | 5.2 | 6.1 | 0.00 | 0.00 | 0.00 | 44 | 1007.6 |
| 20260509220106 | 74 | 177 | 7.0 | 8.7 | 0.00 | 0.00 | 0.00 | 43 | 1007.5 |
| 20260509215601 | 75 | 199 | 6.1 | 8.7 | 0.00 | 0.00 | 0.00 | 43 | 1007.6 |
| 20260509215059 | 74 | 186 | 4.3 | 5.2 | 0.00 | 0.00 | 0.00 | 43 | 1007.5 |
| 20260509214557 | 73 | 169 | 3.5 | 5.2 | 0.00 | 0.00 | 0.00 | 44 | 1007.6 |
| 20260509214053 | 73 | 151 | 1.7 | 2.6 | 0.00 | 0.00 | 0.00 | 45 | 1007.5 |
| 20260509213549 | 74 | 165 | 3.5 | 4.3 | 0.00 | 0.00 | 0.00 | 45 | 1007.7 |
| 20260509213046 | 74 | 195 | 7.8 | 8.7 | 0.00 | 0.00 | 0.00 | 43 | 1007.3 |
| 20260509212543 | 73 | 173 | 4.3 | 6.1 | 0.00 | 0.00 | 0.00 | 46 | 1007.5 |
| 20260509212040 | 73 | 190 | 3.5 | 4.3 | 0.00 | 0.00 | 0.00 | 50 | 1007.4 |
| 20260509211535 | 74 | 142 | 3.5 | 4.3 | 0.00 | 0.00 | 0.00 | 49 | 1007.2 |
| 20260509211033 | 74 | 171 | 0.9 | 0.9 | 0.00 | 0.00 | 0.00 | 50 | 1007.5 |
| 20260509210529 | 73 | 162 | 0.9 | 0.9 | 0.00 | 0.00 | 0.00 | 51 | 1007.4 |
| 20260509210026 | 72 | 150 | 1.7 | 1.7 | 0.00 | 0.00 | 0.00 | 52 | 1007.2 |
| 20260509205526 | 73 | 149 | 1.7 | 1.7 | 0.00 | 0.00 | 0.00 | 49 | 1007.2 |
| 20260509205021 | 73 | 157 | 1.7 | 2.6 | 0.00 | 0.00 | 0.00 | 50 | 1007.3 |
| 20260509204518 | 73 | 153 | 1.7 | 2.6 | 0.00 | 0.00 | 0.00 | 49 | 1007.4 |
| 20260509204014 | 73 | 117 | 0.9 | 1.7 | 0.00 | 0.00 | 0.00 | 50 | 1007.3 |
| 20260509203510 | 73 | 123 | 2.6 | 2.6 | 0.00 | 0.00 | 0.00 | 47 | 1007.1 |
| 20260509203009 | 73 | 116 | 4.3 | 5.2 | 0.00 | 0.00 | 0.00 | 48 | 1007.1 |
| 20260509202509 | 74 | 128 | 2.6 | 2.6 | 0.00 | 0.00 | 0.00 | 45 | 1006.9 |
| 20260509202004 | 74 | 170 | 6.1 | 7.0 | 0.00 | 0.00 | 0.00 | 43 | 1007.2 |
| 20260509201459 | 74 | 188 | 7.8 | 8.7 | 0.00 | 0.00 | 0.00 | 42 | 1007.4 |
| 20260509200957 | 73 | 205 | 7.0 | 7.8 | 0.00 | 0.00 | 0.00 | 44 | 1007.1 |
| 20260509200452 | 73 | 178 | 4.3 | 4.3 | 0.00 | 0.00 | 0.00 | 45 | 1007.3 |
| 20260509195949 | 74 | 131 | 2.6 | 2.6 | 0.00 | 0.00 | 0.00 | 47 | 1007.3 |
| 20260509195444 | 76 | 90 | 3.5 | 5.2 | 0.00 | 0.00 | 0.00 | 46 | 1007.1 |
| 20260509194944 | 76 | 189 | 2.6 | 4.3 | 0.00 | 0.00 | 0.00 | 46 | 1007.3 |
| 20260509194439 | 75 | 159 | 2.6 | 4.3 | 0.00 | 0.00 | 0.00 | 48 | 1007.5 |
| 20260509193937 | 75 | 150 | 5.2 | 7.0 | 0.00 | 0.00 | 0.00 | 44 | 1007.5 |
| 20260509193436 | 74 | 224 | 3.5 | 5.2 | 0.00 | 0.00 | 0.00 | 42 | 1007.5 |
| 20260509192933 | 73 | 148 | 3.5 | 5.2 | 0.00 | 0.00 | 0.00 | 43 | 1008.0 |
| 20260509192429 | 75 | 192 | 8.7 | 9.6 | 0.00 | 0.00 | 0.00 | 40 | 1007.7 |
| 20260509191925 | 75 | 182 | 5.2 | 6.1 | 0.00 | 0.00 | 0.00 | 44 | 1008.0 |
| 20260509191420 | 74 | 220 | 5.2 | 7.0 | 0.00 | 0.00 | 0.00 | 45 | 1007.6 |
| 20260509190916 | 73 | 204 | 2.6 | 4.3 | 0.00 | 0.00 | 0.00 | 49 | 1007.7 |
| 20260509190414 | 73 | 158 | 0.9 | 0.9 | 0.00 | 0.00 | 0.00 | 48 | 1007.9 |
| 20260509185911 | 71 | 190 | 3.5 | 4.3 | 0.00 | 0.00 | 0.00 | 49 | 1007.7 |
| 20260509185409 | 74 | 154 | 4.3 | 7.0 | 0.00 | 0.00 | 0.00 | 48 | 1007.7 |
| 20260509184905 | 73 | 109 | 0.9 | 0.9 | 0.00 | 0.00 | 0.00 | 50 | 1008.1 |
| 20260509184402 | 73 | 188 | 4.3 | 4.3 | 0.00 | 0.00 | 0.00 | 50 | 1008.2 |
| 20260509183859 | 73 | 218 | 5.2 | 7.0 | 0.00 | 0.00 | 0.00 | 49 | 1008.3 |
| 20260509183353 | 73 | 182 | 5.2 | 6.1 | 0.00 | 0.00 | 0.00 | 52 | 1008.4 |
| 20260509182849 | 73 | 122 | 6.1 | 7.0 | 0.00 | 0.00 | 0.00 | 51 | 1008.2 |
| 20260509182347 | 73 | 151 | 1.7 | 1.7 | 0.00 | 0.00 | 0.00 | 52 | 1008.4 |
| 20260509181844 | 73 | 175 | 3.5 | 5.2 | 0.00 | 0.00 | 0.00 | 51 | 1008.3 |
| 20260509181341 | 72 | 106 | 2.6 | 2.6 | 0.00 | 0.00 | 0.00 | 52 | 1008.4 |
| 20260509180839 | 71 | 168 | 4.3 | 5.2 | 0.00 | 0.00 | 0.00 | 52 | 1008.7 |
| 20260509180334 | 71 | 159 | 2.6 | 5.2 | 0.00 | 0.00 | 0.00 | 53 | 1008.6 |
| 20260509175832 | 70 | 147 | 4.3 | 6.1 | 0.00 | 0.00 | 0.00 | 52 | 1009.0 |
| 20260509175328 | 70 | 144 | 4.3 | 5.2 | 0.00 | 0.00 | 0.00 | 55 | 1008.7 |
| 20260509174824 | 70 | 148 | 1.7 | 2.6 | 0.00 | 0.00 | 0.00 | 51 | 1009.0 |
| 20260509174319 | 69 | 176 | 3.5 | 4.3 | 0.00 | 0.00 | 0.00 | 50 | 1009.2 |
| 20260509173816 | 69 | 187 | 7.0 | 7.8 | 0.00 | 0.00 | 0.00 | 50 | 1009.1 |
| 20260509173311 | 69 | 184 | 2.6 | 4.3 | 0.00 | 0.00 | 0.00 | 50 | 1009.3 |
| 20260509172807 | 69 | 158 | 1.7 | 1.7 | 0.00 | 0.00 | 0.00 | 51 | 1009.3 |
| 20260509172306 | 69 | 172 | 4.3 | 5.2 | 0.00 | 0.00 | 0.00 | 51 | 1009.3 |
| 20260509171800 | 68 | 111 | 2.6 | 2.6 | 0.00 | 0.00 | 0.00 | 54 | 1009.3 |
| 20260509171256 | 68 | 171 | 3.5 | 5.2 | 0.00 | 0.00 | 0.00 | 54 | 1009.4 |
| 20260509170753 | 68 | 207 | 2.6 | 5.2 | 0.00 | 0.00 | 0.00 | 55 | 1009.5 |
| 20260509170249 | 68 | 153 | 3.5 | 4.3 | 0.00 | 0.00 | 0.00 | 54 | 1009.3 |
| 20260509165748 | 68 | 178 | 4.3 | 5.2 | 0.00 | 0.00 | 0.00 | 54 | 1009.4 |
| 20260509165243 | 68 | 192 | 4.3 | 5.2 | 0.00 | 0.00 | 0.00 | 52 | 1009.4 |
| 20260509164739 | 69 | 191 | 3.5 | 5.2 | 0.00 | 0.00 | 0.00 | 48 | 1009.3 |
| 20260509164235 | 69 | 112 | 1.7 | 1.7 | 0.00 | 0.00 | 0.00 | 50 | 1009.2 |
| 20260509163733 | 69 | 191 | 2.6 | 5.2 | 0.00 | 0.00 | 0.00 | 48 | 1009.5 |
| 20260509163229 | 69 | 187 | 2.6 | 4.3 | 0.00 | 0.00 | 0.00 | 51 | 1009.5 |
| 20260509162727 | 69 | 206 | 3.5 | 4.3 | 0.00 | 0.00 | 0.00 | 52 | 1009.3 |
| 20260509162221 | 69 | 188 | 5.2 | 7.0 | 0.00 | 0.00 | 0.00 | 51 | 1009.3 |
| 20260509161717 | 68 | 202 | 7.8 | 8.7 | 0.00 | 0.00 | 0.00 | 55 | 1009.4 |
| 20260509161214 | 67 | 173 | 5.2 | 6.1 | 0.00 | 0.00 | 0.00 | 56 | 1009.5 |
| 20260509160709 | 68 | 193 | 4.3 | 6.1 | 0.00 | 0.00 | 0.00 | 55 | 1009.4 |
| 20260509160206 | 68 | 202 | 7.0 | 7.8 | 0.00 | 0.00 | 0.00 | 52 | 1009.5 |
| 20260509155701 | 68 | 195 | 2.6 | 5.2 | 0.00 | 0.00 | 0.00 | 55 | 1009.5 |
| 20260509155157 | 68 | 176 | 6.1 | 7.0 | 0.00 | 0.00 | 0.00 | 55 | 1009.3 |
| 20260509154653 | 67 | 172 | 5.2 | 6.1 | 0.00 | 0.00 | 0.00 | 56 | 1009.4 |
| 20260509154151 | 67 | 198 | 4.3 | 5.2 | 0.00 | 0.00 | 0.00 | 56 | 1009.5 |
| 20260509153647 | 67 | 168 | 7.0 | 7.8 | 0.00 | 0.00 | 0.00 | 56 | 1009.4 |
| 20260509153144 | 67 | 143 | 7.8 | 9.6 | 0.00 | 0.00 | 0.00 | 56 | 1009.5 |
| 20260509152640 | 67 | 183 | 6.1 | 7.0 | 0.00 | 0.00 | 0.00 | 56 | 1009.3 |
| 20260509152137 | 66 | 163 | 4.3 | 7.0 | 0.00 | 0.00 | 0.00 | 55 | 1009.2 |
| 20260509151634 | 66 | 174 | 4.3 | 6.1 | 0.00 | 0.00 | 0.00 | 56 | 1009.3 |
| 20260509151131 | 66 | 173 | 6.1 | 7.0 | 0.00 | 0.00 | 0.00 | 57 | 1009.2 |
| 20260509150629 | 66 | 179 | 5.2 | 7.8 | 0.00 | 0.00 | 0.00 | 57 | 1009.5 |
| 20260509150127 | 66 | 193 | 2.6 | 2.6 | 0.00 | 0.00 | 0.00 | 58 | 1009.5 |
| 20260509145623 | 67 | 168 | 4.3 | 6.1 | 0.00 | 0.00 | 0.00 | 55 | 1009.3 |
| 20260509145118 | 67 | 181 | 5.2 | 6.1 | 0.00 | 0.00 | 0.00 | 57 | 1009.5 |
| 20260509144615 | 66 | 181 | 2.6 | 4.3 | 0.00 | 0.00 | 0.00 | 58 | 1009.3 |
| 20260509144112 | 66 | 171 | 2.6 | 4.3 | 0.00 | 0.00 | 0.00 | 58 | 1009.5 |
| 20260509143609 | 64 | 181 | 2.6 | 2.6 | 0.00 | 0.00 | 0.00 | 60 | 1009.6 |
| 20260509143107 | 64 | 196 | 4.3 | 6.1 | 0.00 | 0.00 | 0.00 | 62 | 1009.4 |
| 20260509142602 | 64 | 153 | 3.5 | 5.2 | 0.00 | 0.00 | 0.00 | 61 | 1009.3 |
| 20260509142058 | 64 | 170 | 4.3 | 6.1 | 0.00 | 0.00 | 0.00 | 62 | 1009.8 |
| 20260509141555 | 63 | 104 | 6.1 | 7.8 | 0.00 | 0.00 | 0.00 | 63 | 1009.9 |
| 20260509141051 | 63 | 159 | 4.3 | 5.2 | 0.00 | 0.00 | 0.00 | 62 | 1010.2 |
| 20260509140548 | 63 | 206 | 7.8 | 8.7 | 0.00 | 0.00 | 0.00 | 63 | 1010.0 |
| 20260509140046 | 63 | 173 | 7.0 | 7.8 | 0.00 | 0.00 | 0.00 | 63 | 1010.2 |
| 20260509135543 | 62 | 180 | 4.3 | 5.2 | 0.00 | 0.00 | 0.00 | 65 | 1010.3 |
| 20260509135041 | 62 | 192 | 6.1 | 7.0 | 0.00 | 0.00 | 0.00 | 64 | 1010.4 |
| 20260509134537 | 61 | 118 | 2.6 | 2.6 | 0.00 | 0.00 | 0.00 | 65 | 1010.6 |
| 20260509134035 | 61 | 129 | 5.2 | 7.8 | 0.00 | 0.00 | 0.00 | 64 | 1010.4 |
| 20260509133532 | 61 | 189 | 5.2 | 7.0 | 0.00 | 0.00 | 0.00 | 67 | 1010.5 |
| 20260509133029 | 61 | 161 | 4.3 | 6.1 | 0.00 | 0.00 | 0.00 | 66 | 1010.5 |
| 20260509132528 | 60 | 177 | 4.3 | 5.2 | 0.00 | 0.00 | 0.00 | 66 | 1010.7 |
| 20260509132026 | 60 | 176 | 4.3 | 5.2 | 0.00 | 0.00 | 0.00 | 66 | 1010.6 |
| 20260509131521 | 60 | 163 | 3.5 | 4.3 | 0.00 | 0.00 | 0.00 | 67 | 1010.6 |
| 20260509131019 | 59 | 183 | 5.2 | 6.1 | 0.00 | 0.00 | 0.00 | 66 | 1010.4 |
| 20260509130514 | 59 | 138 | 4.3 | 4.3 | 0.00 | 0.00 | 0.00 | 65 | 1010.5 |
| 20260509130011 | 59 | 174 | 3.5 | 4.3 | 0.00 | 0.00 | 0.00 | 64 | 1010.4 |
| 20260509125508 | 59 | 150 | 2.6 | 2.6 | 0.00 | 0.00 | 0.00 | 65 | 1010.5 |
| 20260509125004 | 59 | 136 | 0.0 | 0.9 | 0.00 | 0.00 | 0.00 | 65 | 1010.4 |
| 20260509124501 | 59 | 175 | 2.6 | 2.6 | 0.00 | 0.00 | 0.00 | 65 | 1010.3 |
| 20260509123958 | 59 | 150 | 0.0 | 0.9 | 0.00 | 0.00 | 0.00 | 66 | 1010.4 |
| 20260509123456 | 59 | 110 | 0.0 | 0.9 | 0.00 | 0.00 | 0.00 | 65 | 1010.5 |
| 20260509122951 | 59 | 149 | 0.9 | 0.9 | 0.00 | 0.00 | 0.00 | 65 | 1010.6 |
| 20260509122448 | 58 | 144 | 0.0 | 0.9 | 0.00 | 0.00 | 0.00 | 64 | 1010.6 |
| 20260509121945 | 57 | 154 | 0.9 | 0.9 | 0.00 | 0.00 | 0.00 | 65 | 1010.6 |
| 20260509121442 | 57 | 153 | 0.9 | 0.9 | 0.00 | 0.00 | 0.00 | 68 | 1010.6 |
| 20260509120940 | 58 | 152 | 0.0 | 0.0 | 0.00 | 0.00 | 0.00 | 73 | 1010.4 |
| 20260509120438 | 57 | 172 | 0.9 | 0.9 | 0.00 | 0.00 | 0.00 | 67 | 1010.3 |
| 20260509115935 | 57 | 127 | 0.0 | 0.0 | 0.00 | 0.00 | 0.00 | 67 | 1010.4 |
| 20260509115432 | 57 | 120 | 0.0 | 0.0 | 0.00 | 0.00 | 0.00 | 69 | 1010.3 |
| 20260509114930 | 56 | 120 | 0.0 | 0.0 | 0.00 | 0.00 | 0.00 | 68 | 1010.5 |
| 20260509114428 | 56 | 119 | 0.0 | 0.0 | 0.00 | 0.00 | 0.00 | 67 | 1010.5 |
| 20260509113928 | 56 | 120 | 0.0 | 0.0 | 0.00 | 0.00 | 0.00 | 67 | 1010.7 |
| 20260509113424 | 56 | 121 | 0.0 | 0.0 | 0.00 | 0.00 | 0.00 | 67 | 1010.6 |
| 20260509112921 | 55 | 123 | 0.0 | 0.0 | 0.00 | 0.00 | 0.00 | 67 | 1010.6 |
| 20260509112419 | 55 | 123 | 0.0 | 0.0 | 0.00 | 0.00 | 0.00 | 66 | 1010.5 |
| 20260509111915 | 55 | 113 | 0.0 | 0.9 | 0.00 | 0.00 | 0.00 | 67 | 1010.4 |
| 20260509111412 | 55 | 121 | 0.0 | 0.0 | 0.00 | 0.00 | 0.00 | 68 | 1010.6 |
| 20260509110910 | 55 | 110 | 0.0 | 0.9 | 0.00 | 0.00 | 0.00 | 67 | 1010.3 |
| 20260509110405 | 55 | 120 | 0.0 | 0.0 | 0.00 | 0.00 | 0.00 | 67 | 1010.6 |
| 20260509105904 | 54 | 108 | 0.0 | 0.9 | 0.00 | 0.00 | 0.00 | 67 | 1010.6 |
| 20260509105402 | 53 | 121 | 0.0 | 0.0 | 0.00 | 0.00 | 0.00 | 68 | 1010.6 |
| 20260509104858 | 53 | 121 | 0.0 | 0.0 | 0.00 | 0.00 | 0.00 | 69 | 1010.5 |
| 20260509104355 | 53 | 111 | 0.0 | 0.0 | 0.00 | 0.00 | 0.00 | 70 | 1010.6 |
| 20260509103853 | 53 | 110 | 0.0 | 0.0 | 0.00 | 0.00 | 0.00 | 70 | 1010.5 |
| 20260509103350 | 53 | 124 | 0.0 | 0.0 | 0.00 | 0.00 | 0.00 | 69 | 1010.4 |
| 20260509102849 | 53 | 136 | 0.0 | 0.0 | 0.00 | 0.00 | 0.00 | 68 | 1010.6 |
| 20260509102346 | 53 | 121 | 0.0 | 0.0 | 0.00 | 0.00 | 0.00 | 67 | 1010.5 |
| 20260509101841 | 53 | 122 | 0.0 | 0.0 | 0.00 | 0.00 | 0.00 | 67 | 1010.6 |
| 20260509101337 | 53 | 124 | 0.0 | 0.0 | 0.00 | 0.00 | 0.00 | 67 | 1010.5 |
| 20260509100836 | 53 | 121 | 0.0 | 0.0 | 0.00 | 0.00 | 0.00 | 67 | 1010.5 |
| 20260509100332 | 53 | 110 | 0.0 | 0.0 | 0.00 | 0.00 | 0.00 | 68 | 1011.0 |
| 20260509095829 | 53 | 119 | 0.0 | 0.0 | 0.00 | 0.00 | 0.00 | 68 | 1010.7 |
| 20260509095326 | 53 | 88 | 0.9 | 0.9 | 0.00 | 0.00 | 0.00 | 68 | 1010.7 |
| 20260509094823 | 53 | 120 | 0.0 | 0.0 | 0.00 | 0.00 | 0.00 | 67 | 1010.6 |
| 20260509094320 | 53 | 128 | 0.9 | 0.9 | 0.00 | 0.00 | 0.00 | 65 | 1010.6 |
| 20260509093818 | 53 | 135 | 0.9 | 0.9 | 0.00 | 0.00 | 0.00 | 64 | 1010.8 |
| 20260509093315 | 53 | 112 | 0.0 | 0.0 | 0.00 | 0.00 | 0.00 | 65 | 1010.6 |
| 20260509092813 | 53 | 131 | 0.0 | 0.9 | 0.00 | 0.00 | 0.00 | 65 | 1010.7 |
| 20260509092311 | 53 | 116 | 0.0 | 0.0 | 0.00 | 0.00 | 0.00 | 65 | 1010.6 |
| 20260509091809 | 53 | 102 | 0.9 | 0.9 | 0.00 | 0.00 | 0.00 | 65 | 1010.8 |
| 20260509091305 | 53 | 112 | 0.0 | 0.0 | 0.00 | 0.00 | 0.00 | 66 | 1010.8 |
| 20260509090803 | 53 | 104 | 0.0 | 0.0 | 0.00 | 0.00 | 0.00 | 66 | 1010.7 |
| 20260509090259 | 53 | 119 | 0.0 | 0.0 | 0.00 | 0.00 | 0.00 | 65 | 1010.7 |
| 20260509085757 | 53 | 123 | 0.0 | 0.0 | 0.00 | 0.00 | 0.00 | 65 | 1011.0 |
| 20260509085254 | 53 | 164 | 0.0 | 0.0 | 0.00 | 0.00 | 0.00 | 63 | 1010.8 |
| 20260509084751 | 53 | 109 | 0.0 | 0.0 | 0.00 | 0.00 | 0.00 | 64 | 1010.7 |
| 20260509084247 | 53 | 139 | 0.0 | 0.0 | 0.00 | 0.00 | 0.00 | 63 | 1011.0 |
| 20260509083745 | 53 | 116 | 0.0 | 0.0 | 0.00 | 0.00 | 0.00 | 63 | 1010.7 |
| 20260509083242 | 53 | 115 | 0.0 | 0.0 | 0.00 | 0.00 | 0.00 | 64 | 1011.1 |
| 20260509082738 | 53 | 119 | 0.0 | 0.0 | 0.00 | 0.00 | 0.00 | 66 | 1011.1 |
| 20260509082235 | 53 | 125 | 0.0 | 0.0 | 0.00 | 0.00 | 0.00 | 67 | 1011.1 |
| 20260509081732 | 53 | 126 | 0.0 | 0.0 | 0.00 | 0.00 | 0.00 | 68 | 1011.1 |
| 20260509081230 | 53 | 134 | 0.0 | 0.0 | 0.00 | 0.00 | 0.00 | 68 | 1011.1 |
| 20260509080727 | 53 | 173 | 1.7 | 1.7 | 0.00 | 0.00 | 0.00 | 68 | 1011.0 |
| 20260509080225 | 53 | 105 | 0.0 | 0.9 | 0.00 | 0.00 | 0.00 | 67 | 1011.0 |
| 20260509075723 | 53 | 141 | 0.0 | 0.0 | 0.00 | 0.00 | 0.00 | 64 | 1011.2 |
| 20260509075220 | 53 | 113 | 0.0 | 0.0 | 0.00 | 0.00 | 0.00 | 65 | 1011.0 |
| 20260509074717 | 53 | 124 | 0.0 | 0.0 | 0.00 | 0.00 | 0.00 | 62 | 1011.3 |
| 20260509074215 | 53 | 110 | 0.0 | 0.0 | 0.00 | 0.00 | 0.00 | 65 | 1011.1 |
| 20260509073711 | 54 | 110 | 0.0 | 0.0 | 0.00 | 0.00 | 0.00 | 64 | 1011.3 |
| 20260509073207 | 54 | 132 | 0.0 | 0.0 | 0.00 | 0.00 | 0.00 | 60 | 1011.4 |
| 20260509072704 | 53 | 113 | 0.0 | 0.9 | 0.00 | 0.00 | 0.00 | 62 | 1011.4 |
| 20260509072201 | 53 | 119 | 0.0 | 0.0 | 0.00 | 0.00 | 0.00 | 63 | 1011.4 |
| 20260509071657 | 53 | 113 | 0.0 | 0.0 | 0.00 | 0.00 | 0.00 | 63 | 1011.5 |
| 20260509071155 | 53 | 108 | 0.0 | 0.9 | 0.00 | 0.00 | 0.00 | 63 | 1011.5 |
| 20260509070651 | 53 | 96 | 0.0 | 0.9 | 0.00 | 0.00 | 0.00 | 67 | 1011.4 |
| 20260509070148 | 53 | 107 | 0.0 | 0.9 | 0.00 | 0.00 | 0.00 | 67 | 1011.5 |
| 20260509065644 | 53 | 106 | 0.0 | 0.9 | 0.00 | 0.00 | 0.00 | 68 | 1011.5 |
| 20260509065140 | 53 | 93 | 0.9 | 0.9 | 0.00 | 0.00 | 0.00 | 69 | 1011.5 |
| 20260509064637 | 52 | 109 | 0.9 | 0.9 | 0.00 | 0.00 | 0.00 | 67 | 1011.8 |
| 20260509064135 | 52 | 98 | 0.9 | 0.9 | 0.00 | 0.00 | 0.00 | 67 | 1011.6 |
| 20260509063632 | 51 | 113 | 0.0 | 0.0 | 0.00 | 0.00 | 0.00 | 68 | 1011.5 |
| 20260509063128 | 51 | 116 | 0.0 | 0.0 | 0.00 | 0.00 | 0.00 | 69 | 1011.7 |
| 20260509062626 | 51 | 124 | 0.0 | 0.0 | 0.00 | 0.00 | 0.00 | 69 | 1012.0 |
| 20260509062122 | 51 | 98 | 0.0 | 0.9 | 0.00 | 0.00 | 0.00 | 69 | 1011.8 |
| 20260509061619 | 51 | 112 | 0.0 | 0.0 | 0.00 | 0.00 | 0.00 | 69 | 1012.0 |
| 20260509061117 | 50 | 131 | 0.0 | 0.0 | 0.00 | 0.00 | 0.00 | 71 | 1011.8 |
| 20260509060615 | 50 | 115 | 0.0 | 0.0 | 0.00 | 0.00 | 0.00 | 72 | 1011.9 |
| 20260509060110 | 50 | 125 | 0.0 | 0.9 | 0.00 | 0.00 | 0.00 | 72 | 1012.0 |
| 20260509055606 | 50 | 94 | 0.9 | 0.9 | 0.00 | 0.00 | 0.00 | 73 | 1012.0 |
| 20260509055102 | 49 | 116 | 0.0 | 0.9 | 0.00 | 0.00 | 0.00 | 74 | 1012.1 |
| 20260509054559 | 49 | 112 | 0.0 | 0.9 | 0.00 | 0.00 | 0.00 | 74 | 1012.0 |
| 20260509054056 | 49 | 99 | 0.9 | 0.9 | 0.00 | 0.00 | 0.00 | 73 | 1012.0 |
| 20260509053555 | 50 | 111 | 0.9 | 0.9 | 0.00 | 0.00 | 0.00 | 72 | 1012.0 |
| 20260509053051 | 50 | 96 | 0.9 | 0.9 | 0.00 | 0.00 | 0.00 | 72 | 1012.1 |
| 20260509052549 | 51 | 97 | 0.9 | 0.9 | 0.00 | 0.00 | 0.00 | 70 | 1012.1 |
| 20260509052047 | 52 | 86 | 0.9 | 1.7 | 0.00 | 0.00 | 0.00 | 68 | 1012.0 |
| 20260509051545 | 52 | 110 | 1.7 | 1.7 | 0.00 | 0.00 | 0.00 | 65 | 1012.1 |
| 20260509051041 | 52 | 87 | 0.9 | 0.9 | 0.00 | 0.00 | 0.00 | 66 | 1012.2 |
| 20260509050538 | 53 | 105 | 0.9 | 1.7 | 0.00 | 0.00 | 0.00 | 62 | 1012.1 |
| 20260509050034 | 51 | 112 | 0.9 | 0.9 | 0.00 | 0.00 | 0.00 | 66 | 1012.1 |
| 20260509045532 | 52 | 118 | 0.9 | 0.9 | 0.00 | 0.00 | 0.00 | 67 | 1012.0 |
| 20260509045029 | 51 | 84 | 0.9 | 0.9 | 0.00 | 0.00 | 0.00 | 67 | 1012.0 |
| 20260509044527 | 51 | 87 | 0.9 | 1.7 | 0.00 | 0.00 | 0.00 | 65 | 1011.9 |
| 20260509044024 | 51 | 88 | 0.9 | 1.7 | 0.00 | 0.00 | 0.00 | 67 | 1011.9 |
| 20260509043520 | 51 | 93 | 0.9 | 0.9 | 0.00 | 0.00 | 0.00 | 66 | 1011.9 |
| 20260509043016 | 51 | 99 | 0.9 | 0.9 | 0.00 | 0.00 | 0.00 | 67 | 1011.9 |
| 20260509042512 | 52 | 101 | 0.9 | 0.9 | 0.00 | 0.00 | 0.00 | 67 | 1012.0 |
| 20260509042008 | 53 | 106 | 0.9 | 1.7 | 0.00 | 0.00 | 0.00 | 64 | 1011.9 |
| 20260509041505 | 53 | 99 | 0.9 | 1.7 | 0.00 | 0.00 | 0.00 | 64 | 1012.0 |
| 20260509041003 | 53 | 99 | 0.9 | 0.9 | 0.00 | 0.00 | 0.00 | 62 | 1011.7 |
| 20260509040501 | 53 | 90 | 0.9 | 1.7 | 0.00 | 0.00 | 0.00 | 63 | 1011.9 |
| 20260509035957 | 53 | 107 | 0.9 | 0.9 | 0.00 | 0.00 | 0.00 | 63 | 1012.0 |
| 20260509035454 | 53 | 106 | 0.9 | 0.9 | 0.00 | 0.00 | 0.00 | 64 | 1011.7 |
| 20260509034951 | 54 | 99 | 0.9 | 0.9 | 0.00 | 0.00 | 0.00 | 62 | 1011.9 |
| 20260509034449 | 53 | 94 | 0.9 | 0.9 | 0.00 | 0.00 | 0.00 | 62 | 1012.0 |
| 20260509033945 | 53 | 91 | 0.9 | 0.9 | 0.00 | 0.00 | 0.00 | 62 | 1012.1 |
| 20260509033443 | 53 | 110 | 0.0 | 0.0 | 0.00 | 0.00 | 0.00 | 64 | 1012.0 |
| 20260509032939 | 53 | 107 | 0.9 | 0.9 | 0.00 | 0.00 | 0.00 | 64 | 1012.0 |
| 20260509032437 | 53 | 120 | 0.0 | 0.0 | 0.00 | 0.00 | 0.00 | 63 | 1012.0 |
| 20260509031934 | 53 | 115 | 0.0 | 0.9 | 0.00 | 0.00 | 0.00 | 64 | 1012.0 |
| 20260509031432 | 53 | 111 | 0.9 | 0.9 | 0.00 | 0.00 | 0.00 | 65 | 1012.0 |
| 20260509030929 | 53 | 117 | 0.0 | 0.0 | 0.00 | 0.00 | 0.00 | 64 | 1012.1 |
| 20260509030427 | 54 | 109 | 0.9 | 0.9 | 0.00 | 0.00 | 0.00 | 63 | 1012.0 |
| 20260509025924 | 54 | 99 | 0.9 | 0.9 | 0.00 | 0.00 | 0.00 | 61 | 1012.0 |
| 20260509025419 | 54 | 98 | 0.9 | 0.9 | 0.00 | 0.00 | 0.00 | 61 | 1012.3 |
| 20260509024914 | 54 | 81 | 0.9 | 1.7 | 0.00 | 0.00 | 0.00 | 61 | 1012.1 |
| 20260509024411 | 55 | 108 | 0.9 | 0.9 | 0.00 | 0.00 | 0.00 | 61 | 1012.2 |
| 20260509023908 | 55 | 109 | 0.0 | 0.9 | 0.00 | 0.00 | 0.00 | 60 | 1012.3 |
| 20260509023405 | 55 | 117 | 0.9 | 0.9 | 0.00 | 0.00 | 0.00 | 60 | 1012.4 |
| 20260509022901 | 55 | 120 | 0.0 | 0.0 | 0.00 | 0.00 | 0.00 | 62 | 1012.5 |
| 20260509022359 | 55 | 118 | 0.0 | 0.0 | 0.00 | 0.00 | 0.00 | 61 | 1012.1 |
| 20260509021856 | 56 | 111 | 0.9 | 0.9 | 0.00 | 0.00 | 0.00 | 60 | 1012.3 |
| 20260509021353 | 56 | 99 | 0.9 | 0.9 | 0.00 | 0.00 | 0.00 | 58 | 1012.2 |
| 20260509020850 | 56 | 99 | 0.9 | 0.9 | 0.00 | 0.00 | 0.00 | 57 | 1012.2 |
| 20260509020349 | 56 | 114 | 0.9 | 0.9 | 0.00 | 0.00 | 0.00 | 57 | 1012.1 |